Weili Kongjian 01-03

operational
NORAD ID: 62578 Int'l Des: 2025-007 Owner: CENTI Country: CN
LEOCIRCULAR

Über Weili Kongjian 01-03

Beschreibung wird geladen...

Live-Position

3D-Globus wird geladen...

Nächste Überflüge

Höhenverlauf

Altitude vs Time

uPlot chart will show altitude changes over time

Zweizeiliger Elementsatz

1 62578U 25007D 25340.57341170 .00000315 00000-0 21298-3 0 9998
2 62578 54.9779 258.3181 0007911 276.0452 83.9622 14.21769395 47900
Epoch: 6. Dez. 2025 • Age: 16 hours

Aktueller Status

Höhe 833.2 km
Geschwindigkeit 7.44 km/s
Subsatellitenpunkt -55.06°S, 0.19°W
Startdatum 13. Jan. 2025
Alter 0.8 years
Typ other

Technische Details

Klassifizierung Payload
Masse 140.00 kg
Trockenmasse 140.00 kg
Gesamtmasse 140.00 kg
Länge 1.00 m
Durchmesser 0.50 m
Spannweite 2.00 m
Form Box + 2 pan
Hersteller DFHS
Bus-Typ WK01
Phasenstatus In Orbit
Besitzer/Staat CENTI/CN

Große Konstellationen

Loading constellations...